This demonstration page uses our WeatherBlox Daily Observations layout. Learn more.

Left ArrowRight Arrow

44.8408, -93.29828

Hourly Observations for March 10, 2020

Temp ( °F °C ) Dew Point ( °F °C ) Humidity (%) Winds ( mph kmh ) Pressure ( in mb ) Visibility ( mi km ) Precip ( " mm )
12:53 am 00:53 Mostly Clear 30 -1.1 19 -7.2 64 64 NNW 6 9 30.18 1022 10 16 0.00 0.00
1:53 am 01:53 Mostly Clear 29 -1.7 18 -7.8 63 63 NNW 9 15 30.20 1023 10 16 0.00 0.00
2:53 am 02:53 Clear 28 -2.2 18 -7.8 66 66 NNW 7 11 30.22 1023 10 16 0.00 0.00
3:53 am 03:53 Clear 28 -2.2 18 -7.8 66 66 NNW 5 7 30.23 1024 10 16 0.00 0.00
4:53 am 04:53 Clear 25 -3.9 17 -8.3 72 72 NW 6 9 30.24 1024 10 16 0.00 0.00
5:53 am 05:53 Clear 25 -3.9 17 -8.3 72 72 NW 5 7 30.26 1025 10 16 0.00 0.00
6:53 am 06:53 Clear 24 -4.4 16 -8.9 71 71 NW 6 9 30.30 1026 10 16 0.00 0.00
7:53 am 07:53 Mostly Sunny 25 -3.9 16 -8.9 69 69 NW 5 7 30.31 1026 10 16 0.00 0.00
8:53 am 08:53 Mostly Sunny 29 -1.7 18 -7.8 63 63 NW 3 6 30.31 1026 10 16 0.00 0.00
9:53 am 09:53 Mostly Sunny 32 0 18 -7.8 56 56 Calm 30.31 1026 10 16 0.00 0.00
10:53 am 10:53 Mostly Sunny 34 1.1 17 -8.3 50 50 SE 3 6 30.29 1026 10 16 0.00 0.00
11:53 am 11:53 Mostly Cloudy 37 2.8 17 -8.3 44 44 SSW 7 11 30.28 1025 10 16 0.00 0.00
12:53 pm 12:53 Mostly Cloudy 39 3.9 17 -8.3 41 41 S 7 11 30.27 1025 10 16 0.00 0.00
1:53 pm 13:53 Cloudy 40 4.4 16 -8.9 38 38 S 8 13 30.25 1024 10 16 0.00 0.00
2:53 pm 14:53 Cloudy 41 5 17 -8.3 38 38 SSE 6 9 30.22 1024 10 16 0.00 0.00
3:53 pm 15:53 Cloudy 42 5.6 18 -7.8 38 38 WNW 5 7 30.22 1023 10 16 0.00 0.00
4:53 pm 16:53 Cloudy 42 5.6 18 -7.8 38 38 E 5 7 30.18 1022 10 16 0.00 0.00
5:53 pm 17:53 Cloudy 42 5.6 18 -7.8 38 38 VRB 3 6 30.19 1023 10 16 0.00 0.00
6:53 pm 18:53 Cloudy 41 5 19 -7.2 41 41 S 8 13 30.19 1022 10 16 0.00 0.00
7:11 pm 19:11 Cloudy with Light Snow 38 3.3 27 -2.8 65 65 S 7 11 30.20 1023 1 2 0.00 0.00
7:22 pm 19:22 Cloudy with Light Snow 36 2.2 29 -1.7 76 76 VRB 3 6 30.20 1023 2 3 0.00 0.00
7:53 pm 19:53 Cloudy with Light Snow 34 1.1 30 -1.1 85 85 Calm 30.18 1022 2 3 0.00 0.00
8:11 pm 20:11 Cloudy with Light Snow 35 1.7 30 -1.1 82 82 SSE 5 7 30.18 1022 5 8 0.00 0.00
8:53 pm 20:53 Cloudy with Light Snow 34 1.1 31 -0.6 89 89 Calm 30.17 1022 3 5 0.01 0.25
9:16 pm 21:16 Cloudy with Light Snow 34 1.1 32 0 92 92 VRB 3 6 30.17 1022 4 6 0.00 0.00
9:24 pm 21:24 Cloudy with Light Snow 34 1.1 31 -0.6 89 89 E 6 9 30.17 1022 3 5 0.01 0.25
9:51 pm 21:51 Cloudy with Light Snow 34 1 30 -1 87 87 E 6 9 30.16 1021 2 3 0.01 0.25
9:53 pm 21:53 Cloudy with Light Snow 34 1.1 31 -0.6 89 89 E 6 9 30.15 1021 2 3 0.01 0.25
10:03 pm 22:03 Cloudy with Light Snow 34 1.1 31 -0.6 89 89 E 6 9 30.16 1021 3 4 0.01 0.25
10:26 pm 22:26 Cloudy with Light Snow 33 0.6 31 -0.6 92 92 E 7 11 30.15 1021 2 2 0.01 0.25
10:53 pm 22:53 Cloudy with Light Snow 34 1.1 32 0 92 92 SE 6 9 30.14 1021 2 3 0.02 0.51
11:02 pm 23:02 Cloudy with Mist and Fog 33 0.6 31 -0.6 92 92 SE 6 9 30.15 1021 3 4 0.00 0.00
11:08 pm 23:08 Cloudy with Mist and Fog 33 0.6 31 -0.6 92 92 ESE 6 9 30.15 1021 3 5 0.00 0.00
11:21 pm 23:21 Cloudy with Light Snow 34 1.1 31 -0.6 89 89 ENE 7 11 30.14 1021 3 5 0.00 0.00
11:53 pm 23:53 Cloudy with Mist and Fog 34 1.1 32 0 92 92 NE 3 6 30.13 1020 5 8 0.00 0.00

Powered by AerisWeather